Date String (YYYY-MM-DD hh:mm:ss) UTC,Instrument flags,Ambient pressure (hPa),Sample flow (lpm),Bypass flow (lpm),Sample temperature (°C),Ambient temperature (°C),ASC tube jacket temperature (°C),LED temperature (°C),Box temperature (°C),Sample RH (%),Span deviation,Mass concentration (μg/m³),Mass concentration (μg/m³),Mass concentration (μg/m³)
DateTimeUTC,F1_M11,P_M11,Q1_M11,Q2_M11,T1_M11,T2_M11,T3_M11,T4_M11,T5_M11,U1_M11,ZSPAN_M11,X0_M11,X2_M11,X1_M11
2022-01-22 18:00:00,,0830.6,4.99,0.00,24.2,23.4,00.0,33.1,26.1,13.3,0000.0,0009.49,0004.89,0004.29
2022-01-22 18:01:00,,0830.6,5.01,0.00,24.2,23.4,00.0,33.1,26.0,13.3,0000.0,0009.57,0004.92,0004.30
2022-01-22 18:02:00,,0830.6,5.00,0.00,24.2,23.4,00.0,33.1,26.1,13.3,0000.0,0009.68,0004.96,0004.30
2022-01-22 18:03:00,,0830.6,4.99,0.00,24.2,23.5,00.0,33.1,26.1,13.7,0000.0,0009.71,0004.95,0004.31
2022-01-22 18:04:00,,0830.5,4.99,0.00,24.2,23.5,00.0,33.1,26.1,13.8,0000.0,0009.55,0004.96,0004.31
2022-01-22 18:05:00,,0830.5,5.01,0.00,24.2,23.5,00.0,33.1,26.1,13.4,0000.0,0008.81,0005.00,0004.33
2022-01-22 18:06:00,,0830.5,4.99,0.00,24.3,23.5,00.0,33.2,26.2,13.3,0000.0,0008.97,0005.02,0004.34
2022-01-22 18:07:00,,0830.6,5.00,0.00,24.3,23.5,00.0,33.2,26.2,13.1,0000.0,0009.03,0005.01,0004.35
2022-01-22 18:08:00,,0830.6,5.02,0.00,24.3,23.5,00.0,33.2,26.2,13.0,0000.0,0009.15,0005.01,0004.35
2022-01-22 18:09:00,,0830.6,4.99,0.00,24.3,23.5,00.0,33.2,26.2,12.9,0000.0,0009.26,0004.99,0004.35
2022-01-22 18:10:00,,0830.5,4.98,0.00,24.3,23.5,00.0,33.2,26.2,13.3,0000.0,0010.12,0004.96,0004.34
2022-01-22 18:11:00,,0830.6,5.01,0.00,24.3,23.5,00.0,33.2,26.2,13.4,0000.0,0011.12,0004.96,0004.35
2022-01-22 18:12:00,,0830.5,5.00,0.00,24.3,23.5,00.0,33.2,26.2,13.2,0000.0,0011.58,0004.94,0004.35
2022-01-22 18:13:00,,0830.6,4.99,0.00,24.3,23.5,00.0,33.2,26.2,13.1,0000.0,0011.62,0004.92,0004.34
2022-01-22 18:14:00,,0830.5,5.01,0.00,24.3,23.5,00.0,33.2,26.2,13.2,0000.0,0012.40,0004.92,0004.33
2022-01-22 18:15:00,,0830.5,5.00,0.00,24.3,23.4,00.0,33.2,26.2,13.3,0000.0,0012.31,0004.91,0004.32
2022-01-22 18:16:00,,0830.4,4.99,0.00,24.3,23.5,00.0,33.2,26.1,13.2,0000.0,0012.22,0004.87,0004.32
2022-01-22 18:17:00,,0830.3,5.01,0.00,24.3,23.5,00.0,33.2,26.1,13.2,0000.0,0012.04,0004.86,0004.31
2022-01-22 18:18:00,,0830.4,4.99,0.00,24.3,23.5,00.0,33.3,26.1,13.0,0000.0,0011.78,0004.84,0004.31
2022-01-22 18:19:00,,0830.4,5.03,0.00,24.3,23.4,00.0,33.3,26.1,13.0,0000.0,0011.73,0004.83,0004.31
2022-01-22 18:20:00,,0830.3,4.99,0.00,24.3,23.4,00.0,33.3,26.1,12.8,0000.0,0011.56,0004.81,0004.30
2022-01-22 18:21:00,,0830.4,4.99,0.00,24.3,23.4,00.0,33.3,26.1,13.0,0000.0,0010.83,0004.77,0004.28
2022-01-22 18:22:00,,0830.4,5.01,0.00,24.3,23.4,00.0,33.2,26.1,13.3,0000.0,0010.41,0004.73,0004.28
2022-01-22 18:23:00,,0830.4,5.00,0.00,24.3,23.4,00.0,33.2,26.1,12.6,0000.0,0009.72,0004.65,0004.26
2022-01-22 18:24:00,,0830.4,5.01,0.00,24.3,23.5,00.0,33.2,26.1,12.7,0000.0,0009.69,0004.63,0004.25
2022-01-22 18:25:00,,0830.4,5.00,0.00,24.3,23.5,00.0,33.2,26.1,12.8,0000.0,0008.75,0004.60,0004.26
2022-01-22 18:26:00,,0830.4,4.99,0.00,24.3,23.5,00.0,33.3,26.1,12.8,0000.0,0008.48,0004.60,0004.27
2022-01-22 18:27:00,,0830.4,5.01,0.00,24.3,23.5,00.0,33.3,26.1,12.6,0000.0,0008.35,0004.57,0004.27
2022-01-22 18:28:00,,0830.4,4.98,0.00,24.3,23.5,00.0,33.3,26.1,12.5,0000.0,0008.66,0004.54,0004.27
2022-01-22 18:29:00,,0830.3,5.01,0.00,24.3,23.5,00.0,33.3,26.1,12.9,0000.0,0009.05,0004.55,0004.27
2022-01-22 18:30:00,,0830.4,4.99,0.00,24.3,23.5,00.0,33.3,26.1,13.0,0000.0,0009.03,0004.56,0004.28
2022-01-22 18:31:00,,0830.4,5.00,0.00,24.3,23.5,00.0,33.3,26.1,12.7,0000.0,0009.00,0004.58,0004.29
2022-01-22 18:32:00,,0830.4,5.00,0.00,24.3,23.5,00.0,33.3,26.1,12.8,0000.0,0009.45,0004.59,0004.31
2022-01-22 18:33:00,,0830.4,4.99,0.00,24.3,23.5,00.0,33.3,26.1,12.9,0000.0,0008.81,0004.59,0004.31
2022-01-22 18:34:00,,0830.4,5.01,0.00,24.3,23.5,00.0,33.3,26.1,13.0,0000.0,0008.50,0004.59,0004.32
2022-01-22 18:35:00,,0830.4,5.01,0.00,24.3,23.5,00.0,33.3,26.1,12.7,0000.0,0008.57,0004.59,0004.33
2022-01-22 18:36:00,,0830.4,5.00,0.00,24.3,23.5,00.0,33.3,26.2,13.4,0000.0,0008.97,0004.61,0004.34
2022-01-22 18:37:00,,0830.3,5.00,0.00,24.3,23.5,00.0,33.3,26.2,13.1,0000.0,0009.01,0004.62,0004.34
2022-01-22 18:38:00,,0830.3,5.01,0.00,24.3,23.5,00.0,33.3,26.2,12.8,0000.0,0009.03,0004.65,0004.35
2022-01-22 18:39:00,,0830.2,4.98,0.00,24.3,23.5,00.0,33.3,26.2,12.7,0000.0,0008.70,0004.68,0004.37
2022-01-22 18:40:00,,0830.2,5.02,0.00,24.3,23.5,00.0,33.3,26.1,12.6,0000.0,0008.33,0004.68,0004.37
2022-01-22 18:41:00,,0830.2,5.00,0.00,24.3,23.4,00.0,33.3,26.1,12.6,0000.0,0008.31,0004.68,0004.38
2022-01-22 18:42:00,,0830.2,4.99,0.00,24.3,23.5,00.0,33.3,26.1,12.6,0000.0,0008.36,0004.67,0004.38
2022-01-22 18:43:00,,0830.3,5.00,0.00,24.3,23.5,00.0,33.3,26.1,12.7,0000.0,0007.79,0004.70,0004.39
2022-01-22 18:44:00,,0830.2,5.00,0.00,24.3,23.5,00.0,33.3,26.2,12.8,0000.0,0008.01,0004.72,0004.40
2022-01-22 18:45:00,,0830.2,4.99,0.00,24.3,23.6,00.0,33.3,26.2,13.1,0000.0,0008.08,0004.73,0004.42
2022-01-22 18:46:00,,0830.2,5.00,0.00,24.4,23.6,00.0,33.3,26.2,12.9,0000.0,0007.99,0004.75,0004.45
2022-01-22 18:47:00,,0830.2,5.00,0.00,24.4,23.7,00.0,33.3,26.2,12.7,0000.0,0007.88,0004.74,0004.47
2022-01-22 18:48:00,,0830.3,5.01,0.00,24.4,23.7,00.0,33.3,26.3,12.7,0000.0,0008.26,0004.77,0004.49
2022-01-22 18:49:00,,0830.3,5.01,0.00,24.4,23.7,00.0,33.3,26.3,12.8,0000.0,0008.30,0004.78,0004.51
2022-01-22 18:50:00,,0830.2,5.00,0.00,24.4,23.7,00.0,33.3,26.3,12.6,0000.0,0008.23,0004.79,0004.54
2022-01-22 18:51:00,,0830.2,4.99,0.00,24.4,23.7,00.0,33.3,26.3,12.7,0000.0,0008.74,0004.86,0004.58
2022-01-22 18:52:00,,0830.2,5.01,0.00,24.4,23.7,00.0,33.3,26.3,13.0,0000.0,0008.78,0004.90,0004.61
2022-01-22 18:53:00,,0830.1,4.99,0.00,24.4,23.7,00.0,33.4,26.3,13.2,0000.0,0008.72,0004.93,0004.65
2022-01-22 18:54:00,,0830.0,4.99,0.00,24.5,23.7,00.0,33.4,26.3,12.8,0000.0,0008.74,0004.98,0004.68
2022-01-22 18:55:00,,0830.1,5.01,0.00,24.5,23.7,00.0,33.4,26.3,12.9,0000.0,0008.52,0005.01,0004.71
2022-01-22 18:56:00,,0830.1,5.00,0.00,24.5,23.7,00.0,33.4,26.3,12.9,0000.0,0008.50,0005.04,0004.73
2022-01-22 18:57:00,,0830.1,4.99,0.00,24.5,23.8,00.0,33.4,26.4,12.7,0000.0,0008.79,0005.04,0004.74
2022-01-22 18:58:00,,0830.1,5.01,0.00,24.5,23.8,00.0,33.4,26.4,12.5,0000.0,0008.58,0005.06,0004.76
2022-01-22 18:59:00,,0830.1,4.99,0.00,24.5,23.8,00.0,33.4,26.4,12.5,0000.0,0008.69,0005.06,0004.77
